GW1663 Weather Reports


Display with metric or nautical units.
time (UTC)temp
F
wind
direction
speed
MPH
gust
MPH
rain 1hr
in
rain 24hr
in
rain mn
in
humidity
%
barometer
mb
20260507161121 86 300 1.0 6.0 0.00 0.00 0.00 13 1017.3
20260507160618 85 85 1.0 13.0 0.00 0.00 0.00 13 1017.6
20260507160114 85 291 1.0 12.0 0.00 0.00 0.00 13 1017.5
20260507155609 84 36 2.0 7.0 0.00 0.00 0.00 13 1017.6
20260507155107 85 87 5.0 9.0 0.00 0.00 0.00 13 1017.7
20260507154604 84 65 5.0 10.0 0.00 0.00 0.00 14 1017.5
20260507154100 83 66 5.0 15.0 0.00 0.00 0.00 14 1017.7
20260507153557 84 342 1.0 4.0 0.00 0.00 0.00 16 1017.6
20260507153054 83 99 5.0 9.0 0.00 0.00 0.00 17 1017.7
20260507152550 81 12 2.0 3.0 0.00 0.00 0.00 20 1017.5
20260507152046 81 352 3.0 3.0 0.00 0.00 0.00 20 1017.7
20260507151542 79 55 0.0 4.0 0.00 0.00 0.00 21 1017.7
20260507151039 78 334 2.0 4.0 0.00 0.00 0.00 24 1017.7
20260507150537 76 351 0.0 3.0 0.00 0.00 0.00 26 1017.8
20260507150033 75 318 1.0 3.0 0.00 0.00 0.00 27 1017.8
20260507145528 74 296 2.0 4.0 0.00 0.00 0.00 29 1017.8
20260507145026 74 23 0.0 3.0 0.00 0.00 0.00 28 1017.7
20260507144522 73 324 1.0 2.0 0.00 0.00 0.00 29 1017.8
20260507144020 72 74 0.0 3.0 0.00 0.00 0.00 29 1017.8
20260507143517 71 129 0.0 3.0 0.00 0.00 0.00 30 1017.8
20260507143015 71 269 0.0 4.0 0.00 0.00 0.00 30 1017.7
20260507142509 71 216 1.0 3.0 0.00 0.00 0.00 30 1017.8
20260507142007 71 351 1.0 3.0 0.00 0.00 0.00 31 1017.7
20260507141503 70 25 1.0 3.0 0.00 0.00 0.00 31 1017.6
20260507140959 69 331 3.0 3.0 0.00 0.00 0.00 31 1017.7
20260507140456 69 32 0.0 2.0 0.00 0.00 0.00 32 1017.8
20260507135954 68 344 0.0 4.0 0.00 0.00 0.00 33 1017.5
20260507135450 66 7 2.0 3.0 0.00 0.00 0.00 34 1017.9
20260507134948 65 334 2.0 4.0 0.00 0.00 0.00 35 1017.7
20260507134444 65 355 2.0 4.0 0.00 0.00 0.00 34 1017.2
20260507133940 64 310 3.0 5.0 0.00 0.00 0.00 34 1017.5
20260507133436 64 326 3.0 5.0 0.00 0.00 0.00 34 1017.1
20260507132935 63 324 4.0 5.0 0.00 0.00 0.00 34 1017.1
20260507132431 63 339 3.0 5.0 0.00 0.00 0.00 35 1017.3
20260507131927 63 327 3.0 7.0 0.00 0.00 0.00 35 1017.5
20260507131425 62 327 3.0 4.0 0.00 0.00 0.00 35 1017.0
20260507130922 63 339 3.0 4.0 0.00 0.00 0.00 35 1017.0
20260507130419 62 333 3.0 5.0 0.00 0.00 0.00 35 1017.3
20260507125917 62 294 1.0 4.0 0.00 0.00 0.00 36 1017.0
20260507125415 62 304 2.0 4.0 0.00 0.00 0.00 37 1016.9
20260507124912 62 19 0.0 3.0 0.00 0.00 0.00 37 1016.9
20260507124408 62 335 1.0 2.0 0.00 0.00 0.00 38 1016.7
20260507123907 62 279 3.0 4.0 0.00 0.00 0.00 39 1017.0
20260507123403 62 313 1.0 3.0 0.00 0.00 0.00 38 1016.9
20260507122900 62 128 0.0 2.0 0.00 0.00 0.00 38 1016.7
20260507122355 62 315 0.0 3.0 0.00 0.00 0.00 37 1016.9
20260507121852 63 347 1.0 2.0 0.00 0.00 0.00 37 1016.9
20260507121347 62 330 2.0 3.0 0.00 0.00 0.00 37 1017.0
20260507120844 62 25 1.0 3.0 0.00 0.00 0.00 37 1016.8
20260507120340 62 142 0.0 2.0 0.00 0.00 0.00 37 1016.9
20260507115837 62 347 0.0 2.0 0.00 0.00 0.00 37 1017.0
20260507115332 62 349 2.0 4.0 0.00 0.00 0.00 36 1017.1
20260507114828 62 340 3.0 4.0 0.00 0.00 0.00 37 1017.1
20260507114325 62 333 2.0 3.0 0.00 0.00 0.00 37 1017.1
20260507113823 61 337 1.0 2.0 0.00 0.00 0.00 38 1017.0
20260507113320 61 314 2.0 2.0 0.00 0.00 0.00 37 1017.5
20260507112817 62 351 1.0 2.0 0.00 0.00 0.00 36 1017.2
20260507112314 62 309 0.0 2.0 0.00 0.00 0.00 36 1017.5
20260507111812 62 333 0.0 1.0 0.00 0.00 0.00 36 1017.5
20260507111308 62 85 1.0 2.0 0.00 0.00 0.00 36 1017.5
20260507110804 62 277 0.0 2.0 0.00 0.00 0.00 35 1017.5
20260507110301 63 306 0.0 2.0 0.00 0.00 0.00 35 1017.6
20260507105758 63 328 2.0 2.0 0.00 0.00 0.00 35 1017.3
20260507105254 63 255 0.0 2.0 0.00 0.00 0.00 36 1017.5
20260507104752 63 284 0.0 3.0 0.00 0.00 0.00 36 1017.6
20260507104248 63 340 2.0 3.0 0.00 0.00 0.00 35 1017.6
20260507103744 64 135 0.0 3.0 0.00 0.00 0.00 35 1017.7
20260507103240 64 342 1.0 3.0 0.00 0.00 0.00 34 1017.9
20260507102737 64 196 1.0 2.0 0.00 0.00 0.00 34 1017.6
20260507102234 65 56 1.0 3.0 0.00 0.00 0.00 33 1017.8
20260507101730 65 219 1.0 3.0 0.00 0.00 0.00 32 1017.7
20260507101225 65 165 0.0 2.0 0.00 0.00 0.00 32 1017.6
20260507100722 66 322 1.0 2.0 0.00 0.00 0.00 31 1017.7
20260507100221 66 306 0.0 2.0 0.00 0.00 0.00 31 1017.7
20260507095718 66 338 2.0 3.0 0.00 0.00 0.00 30 1017.7
20260507095214 66 11 2.0 3.0 0.00 0.00 0.00 31 1017.8
20260507094711 66 4 2.0 3.0 0.00 0.00 0.00 31 1017.7
20260507094209 66 21 1.0 3.0 0.00 0.00 0.00 32 1017.7
20260507093705 66 10 1.0 3.0 0.00 0.00 0.00 31 1017.5
20260507093204 65 343 2.0 3.0 0.00 0.00 0.00 32 1017.7
20260507092701 65 17 1.0 4.0 0.00 0.00 0.00 31 1017.7
20260507092157 65 60 1.0 3.0 0.00 0.00 0.00 32 1017.5
20260507091653 65 8 1.0 2.0 0.00 0.00 0.00 33 1017.7
20260507091150 65 358 0.0 3.0 0.00 0.00 0.00 33 1017.6
20260507090645 65 79 2.0 2.0 0.00 0.00 0.00 33 1017.7
20260507090143 65 85 1.0 3.0 0.00 0.00 0.00 32 1017.7
20260507085640 65 350 0.0 2.0 0.00 0.00 0.00 32 1017.6
20260507085136 65 159 0.0 2.0 0.00 0.00 0.00 34 1017.7
20260507084633 65 350 2.0 3.0 0.00 0.00 0.00 32 1017.8
20260507084130 66 75 0.0 2.0 0.00 0.00 0.00 33 1017.5
20260507083627 65 8 0.0 3.0 0.00 0.00 0.00 33 1017.7
20260507083124 65 358 1.0 3.0 0.00 0.00 0.00 34 1018.0
20260507082619 65 352 1.0 2.0 0.00 0.00 0.00 33 1017.8
20260507082116 65 62 0.0 1.0 0.00 0.00 0.00 37 1017.8
20260507081613 65 307 0.0 2.0 0.00 0.00 0.00 36 1018.1
20260507081109 66 41 0.0 1.0 0.00 0.00 0.00 34 1017.9
20260507080606 66 333 0.0 1.0 0.00 0.00 0.00 32 1018.0
20260507075557 66 124 0.0 1.0 0.00 0.00 0.00 32 1018.0
20260507075054 67 309 0.0 2.0 0.00 0.00 0.00 31 1018.1
20260507074551 67 113 0.0 2.0 0.00 0.00 0.00 31 1018.0
20260507074049 67 119 0.0 2.0 0.00 0.00 0.00 31 1018.0
20260507073544 67 15 0.0 2.0 0.00 0.00 0.00 31 1018.0
20260507073041 68 340 0.0 1.0 0.00 0.00 0.00 31 1018.1
20260507072539 68 4 1.0 2.0 0.00 0.00 0.00 31 1018.0
20260507072036 68 16 0.0 2.0 0.00 0.00 0.00 32 1018.1
20260507071533 68 117 0.0 1.0 0.00 0.00 0.00 32 1018.0
20260507071030 68 133 1.0 2.0 0.00 0.00 0.00 32 1018.0
20260507070527 68 89 0.0 2.0 0.00 0.00 0.00 32 1017.8
20260507070024 69 8 1.0 2.0 0.00 0.00 0.00 32 1017.8
20260507065520 69 349 1.0 2.0 0.00 0.00 0.00 32 1018.0
20260507065018 69 11 0.0 2.0 0.00 0.00 0.00 33 1017.9
20260507064515 69 329 0.0 2.0 0.00 0.00 0.00 33 1017.8
20260507064014 68 44 0.0 0.0 0.00 0.00 0.00 34 1017.6
20260507063510 69 30 1.0 2.0 0.00 0.00 0.00 33 1017.9
20260507063008 69 317 0.0 2.0 0.00 0.00 0.00 32 1017.9
20260507062504 69 351 0.0 1.0 0.00 0.00 0.00 32 1017.8
20260507062002 69 355 0.0 1.0 0.00 0.00 0.00 32 1017.6
20260507061459 70 276 0.0 1.0 0.00 0.00 0.00 31 1017.8
20260507060958 71 333 0.0 2.0 0.00 0.00 0.00 31 1017.8
20260507060454 72 7 0.0 1.0 0.00 0.00 0.00 28 1017.8
20260507055951 72 282 0.0 2.0 0.00 0.00 0.00 26 1017.9
20260507055446 73 219 1.0 2.0 0.00 0.00 0.00 26 1017.8
20260507054943 73 225 0.0 3.0 0.00 0.00 0.00 26 1017.8
20260507054439 74 235 0.0 2.0 0.00 0.00 0.00 25 1017.8
20260507053936 74 241 2.0 4.0 0.00 0.00 0.00 25 1018.0
20260507053434 74 228 3.0 7.0 0.00 0.00 0.00 24 1017.7
20260507052932 75 185 2.0 7.0 0.00 0.00 0.00 24 1018.0
20260507052429 75 242 0.0 4.0 0.00 0.00 0.00 25 1018.1
20260507051926 75 232 1.0 4.0 0.00 0.00 0.00 24 1018.0
20260507051424 75 221 3.0 6.0 0.00 0.00 0.00 24 1017.9
20260507050921 75 215 3.0 6.0 0.00 0.00 0.00 24 1017.9
20260507050417 76 218 4.0 6.0 0.00 0.00 0.00 23 1017.8
20260507045914 76 221 2.0 5.0 0.00 0.00 0.00 23 1017.6
20260507045411 76 219 3.0 6.0 0.00 0.00 0.00 23 1017.8
20260507044908 76 205 3.0 7.0 0.00 0.00 0.00 23 1017.7
20260507044405 76 226 3.0 5.0 0.00 0.00 0.00 23 1017.6
20260507043901 76 225 2.0 3.0 0.00 0.00 0.00 23 1017.5
20260507043357 76 233 1.0 4.0 0.00 0.00 0.00 23 1017.6
20260507042853 77 219 4.0 5.0 0.00 0.00 0.00 23 1017.6
20260507042350 76 196 1.0 4.0 0.00 0.00 0.00 23 1017.3
20260507041846 77 223 2.0 5.0 0.00 0.00 0.00 23 1017.6
20260507041343 77 236 0.0 5.0 0.00 0.00 0.00 23 1017.5
20260507040840 76 205 0.0 5.0 0.00 0.00 0.00 23 1017.3
20260507040336 76 188 1.0 3.0 0.00 0.00 0.00 23 1017.1
20260507035832 77 134 0.0 3.0 0.00 0.00 0.00 23 1016.9
20260507035328 77 256 0.0 3.0 0.00 0.00 0.00 23 1016.8
20260507034826 77 210 4.0 4.0 0.00 0.00 0.00 22 1017.0
20260507034322 77 223 0.0 3.0 0.00 0.00 0.00 23 1016.7
20260507033821 78 229 2.0 5.0 0.00 0.00 0.00 22 1016.9
20260507033318 78 199 4.0 5.0 0.00 0.00 0.00 23 1016.7
20260507032815 78 238 1.0 3.0 0.00 0.00 0.00 23 1016.8
20260507032311 78 234 2.0 4.0 0.00 0.00 0.00 22 1016.8
20260507031808 78 232 2.0 6.0 0.00 0.00 0.00 22 1016.5
20260507031305 78 216 3.0 7.0 0.00 0.00 0.00 22 1016.5
20260507030801 78 232 3.0 7.0 0.00 0.00 0.00 22 1016.4
20260507030259 79 220 4.0 5.0 0.00 0.00 0.00 22 1016.3
20260507025756 79 219 3.0 8.0 0.00 0.00 0.00 22 1016.2
20260507025253 79 221 3.0 7.0 0.00 0.00 0.00 22 1016.2
20260507024751 80 219 4.0 5.0 0.00 0.00 0.00 21 1016.2
20260507024248 80 240 3.0 8.0 0.00 0.00 0.00 21 1016.3
20260507023743 80 309 3.0 8.0 0.00 0.00 0.00 21 1016.1
20260507023240 80 231 5.0 9.0 0.00 0.00 0.00 21 1016.0
20260507022738 80 264 3.0 6.0 0.00 0.00 0.00 21 1016.1
20260507022233 80 231 5.0 8.0 0.00 0.00 0.00 21 1016.0
20260507021730 80 229 6.0 14.0 0.00 0.00 0.00 21 1015.8
20260507021225 80 224 5.0 10.0 0.00 0.00 0.00 21 1015.9
20260507020724 81 222 9.0 13.0 0.00 0.00 0.00 21 1016.1
20260507020220 81 219 7.0 11.0 0.00 0.00 0.00 21 1016.0
20260507015718 81 217 6.0 8.0 0.00 0.00 0.00 21 1015.8
20260507015215 82 237 4.0 11.0 0.00 0.00 0.00 20 1016.0
20260507014711 82 204 3.0 11.0 0.00 0.00 0.00 20 1015.9
20260507014208 82 226 9.0 15.0 0.00 0.00 0.00 20 1015.9
20260507013705 82 229 9.0 17.0 0.00 0.00 0.00 20 1015.9
20260507013202 82 256 3.0 14.0 0.00 0.00 0.00 20 1015.6
20260507012659 82 210 7.0 11.0 0.00 0.00 0.00 20 1015.8
20260507012155 82 216 4.0 19.0 0.00 0.00 0.00 20 1015.7
20260507011653 83 217 6.0 10.0 0.00 0.00 0.00 20 1015.7
20260507011149 83 152 0.0 7.0 0.00 0.00 0.00 20 1015.7
20260507010643 83 173 3.0 8.0 0.00 0.00 0.00 20 1015.7
20260507010140 83 192 0.0 12.0 0.00 0.00 0.00 20 1015.8
20260507005637 83 220 3.0 15.0 0.00 0.00 0.00 20 1015.8
20260507005133 83 222 8.0 11.0 0.00 0.00 0.00 20 1015.6
20260507004630 83 227 6.0 12.0 0.00 0.00 0.00 20 1015.7
20260507004128 83 203 4.0 14.0 0.00 0.00 0.00 20 1015.9
20260507003624 84 223 3.0 8.0 0.00 0.00 0.00 20 1015.7
20260507003119 83 233 5.0 14.0 0.00 0.00 0.00 20 1015.9
20260507002616 84 223 5.0 11.0 0.00 0.00 0.00 20 1015.8
20260507002111 83 238 5.0 12.0 0.00 0.00 0.00 20 1015.7
20260507001608 84 239 3.0 13.0 0.00 0.00 0.00 20 1015.8
20260507001106 84 216 6.0 12.0 0.00 0.00 0.00 20 1015.7
20260507000602 84 262 5.0 11.0 0.00 0.00 0.00 20 1015.8
20260507000057 84 233 7.0 12.0 0.00 0.00 0.00 20 1015.7
20260506235555 83 215 4.0 16.0 0.00 0.00 0.00 20 1015.7
20260506235050 84 250 3.0 11.0 0.00 0.00 0.00 20 1015.8
20260506234548 84 230 7.0 11.0 0.00 0.00 0.00 20 1015.9
20260506234045 83 120 2.0 13.0 0.00 0.00 0.00 20 1015.8
20260506233542 84 39 3.0 10.0 0.00 0.00 0.00 20 1016.1
20260506233039 84 228 3.0 8.0 0.00 0.00 0.00 20 1016.0
20260506232535 84 237 8.0 14.0 0.00 0.00 0.00 20 1016.1
20260506232030 85 214 3.0 9.0 0.00 0.00 0.00 20 1016.1
20260506231528 85 232 5.0 11.0 0.00 0.00 0.00 20 1016.2
20260506231026 84 239 6.0 11.0 0.00 0.00 0.00 20 1016.2
20260506230522 84 171 5.0 15.0 0.00 0.00 0.00 20 1016.1
20260506230020 84 150 5.0 11.0 0.00 0.00 0.00 20 1016.4
20260506225516 83 229 8.0 12.0 0.00 0.00 0.00 21 1016.3
20260506225007 84 207 3.0 12.0 0.00 0.00 0.00 20 1016.3
20260506224504 85 114 3.0 5.0 0.00 0.00 0.00 20 1016.3
20260506224001 84 154 3.0 10.0 0.00 0.00 0.00 20 1016.4
20260506223456 83 129 11.0 11.0 0.00 0.00 0.00 21 1016.4
20260506222953 84 215 6.0 11.0 0.00 0.00 0.00 21 1016.7
20260506222450 84 98 7.0 10.0 0.00 0.00 0.00 21 1016.7
20260506221947 84 229 3.0 11.0 0.00 0.00 0.00 21 1016.8
20260506221444 83 318 2.0 10.0 0.00 0.00 0.00 20 1016.7
20260506220942 84 258 7.0 13.0 0.00 0.00 0.00 21 1016.8
20260506220437 84 191 3.0 9.0 0.00 0.00 0.00 21 1016.8
20260506215934 84 143 6.0 11.0 0.00 0.00 0.00 21 1017.0
20260506215430 83 115 2.0 8.0 0.00 0.00 0.00 21 1016.8
20260506214926 82 202 0.0 9.0 0.00 0.00 0.00 21 1017.2
20260506214423 82 358 1.0 7.0 0.00 0.00 0.00 21 1017.2
20260506213921 81 230 6.0 15.0 0.00 0.00 0.00 21 1017.3
20260506213418 84 236 3.0 7.0 0.00 0.00 0.00 21 1017.3
20260506212915 82 214 4.0 10.0 0.00 0.00 0.00 21 1017.6
20260506212411 84 189 4.0 9.0 0.00 0.00 0.00 21 1017.7
20260506211906 83 291 3.0 9.0 0.00 0.00 0.00 21 1017.6
20260506211403 84 260 3.0 13.0 0.00 0.00 0.00 21 1017.7
20260506210900 82 222 7.0 12.0 0.00 0.00 0.00 22 1017.8
20260506210356 82 250 1.0 9.0 0.00 0.00 0.00 21 1017.7
20260506205854 82 227 4.0 10.0 0.00 0.00 0.00 22 1017.9
20260506205349 81 229 7.0 12.0 0.00 0.00 0.00 22 1017.9
20260506204846 82 168 2.0 14.0 0.00 0.00 0.00 22 1018.1
20260506204344 82 93 2.0 8.0 0.00 0.00 0.00 22 1018.3
20260506203841 83 356 2.0 7.0 0.00 0.00 0.00 21 1018.3
20260506203338 82 289 6.0 11.0 0.00 0.00 0.00 22 1018.4
20260506202835 81 291 2.0 6.0 0.00 0.00 0.00 23 1018.2
20260506202332 82 194 2.0 13.0 0.00 0.00 0.00 22 1018.4
20260506201829 81 284 2.0 10.0 0.00 0.00 0.00 22 1018.3
20260506201326 81 207 2.0 10.0 0.00 0.00 0.00 23 1018.5
20260506200823 81 219 7.0 10.0 0.00 0.00 0.00 23 1018.5
20260506200319 80 151 9.0 14.0 0.00 0.00 0.00 23 1018.5
20260506195815 80 130 4.0 11.0 0.00 0.00 0.00 23 1018.7
20260506195312 81 214 3.0 15.0 0.00 0.00 0.00 23 1018.6
20260506194809 79 141 3.0 10.0 0.00 0.00 0.00 23 1018.6
20260506194306 81 119 2.0 6.0 0.00 0.00 0.00 22 1018.7
20260506193804 79 173 1.0 10.0 0.00 0.00 0.00 23 1018.8
20260506193300 80 241 5.0 7.0 0.00 0.00 0.00 22 1018.9
20260506192756 81 89 0.0 5.0 0.00 0.00 0.00 22 1018.9
20260506192253 81 338 3.0 6.0 0.00 0.00 0.00 22 1019.0
20260506191750 79 154 4.0 8.0 0.00 0.00 0.00 23 1019.0
20260506191247 79 288 4.0 8.0 0.00 0.00 0.00 23 1019.0
20260506190744 79 318 0.0 7.0 0.00 0.00 0.00 23 1019.1
20260506190240 77 23 2.0 10.0 0.00 0.00 0.00 24 1019.1
20260506185737 78 137 7.0 8.0 0.00 0.00 0.00 24 1019.1
20260506185234 78 257 3.0 7.0 0.00 0.00 0.00 24 1019.0
20260506184731 77 106 2.0 4.0 0.00 0.00 0.00 24 1019.3
20260506184228 78 224 8.0 12.0 0.00 0.00 0.00 23 1019.3
20260506183725 79 229 3.0 7.0 0.00 0.00 0.00 24 1019.3
20260506183221 79 225 3.0 10.0 0.00 0.00 0.00 24 1019.6
20260506182718 78 324 5.0 7.0 0.00 0.00 0.00 24 1019.3
20260506182215 79 328 4.0 7.0 0.00 0.00 0.00 24 1019.5
20260506181713 77 264 2.0 9.0 0.00 0.00 0.00 26 1019.6
20260506181210 78 131 4.0 10.0 0.00 0.00 0.00 25 1019.6
20260506180707 77 228 6.0 11.0 0.00 0.00 0.00 25 1019.8
20260506180203 76 135 4.0 8.0 0.00 0.00 0.00 25 1019.6
20260506175659 77 135 6.0 9.0 0.00 0.00 0.00 26 1019.6
20260506175156 77 230 4.0 6.0 0.00 0.00 0.00 26 1019.8
20260506174649 78 78 3.0 8.0 0.00 0.00 0.00 26 1019.8
20260506174145 75 210 1.0 5.0 0.00 0.00 0.00 27 1019.9
20260506173643 75 109 2.0 5.0 0.00 0.00 0.00 27 1020.0
20260506173140 76 327 3.0 7.0 0.00 0.00 0.00 26 1019.8
20260506172637 76 2 2.0 9.0 0.00 0.00 0.00 26 1019.9
20260506172133 77 217 4.0 7.0 0.00 0.00 0.00 27 1019.9
20260506171631 76 295 0.0 3.0 0.00 0.00 0.00 27 1019.8
20260506171128 76 124 0.0 6.0 0.00 0.00 0.00 27 1019.8
20260506170625 77 359 2.0 5.0 0.00 0.00 0.00 28 1019.8
20260506170117 75 225 2.0 4.0 0.00 0.00 0.00 28 1019.7
20260506165615 76 228 2.0 5.0 0.00 0.00 0.00 28 1020.0
20260506165106 76 232 2.0 4.0 0.00 0.00 0.00 28 1019.7
20260506164603 74 255 2.0 5.0 0.00 0.00 0.00 29 1019.9
20260506164100 73 231 6.0 7.0 0.00 0.00 0.00 30 1019.9
20260506163555 73 352 1.0 7.0 0.00 0.00 0.00 30 1019.6
20260506163051 73 330 4.0 7.0 0.00 0.00 0.00 29 1019.7
20260506162548 74 152 2.0 6.0 0.00 0.00 0.00 29 1019.8
20260506162045 75 105 3.0 4.0 0.00 0.00 0.00 28 1019.7
20260506161543 74 7 0.0 2.0 0.00 0.00 0.00 29 1019.7